Hourly Data Report for October 05, 2017

All times are specified in Local Standard Time (LST). Add 1 hour to adjust for Daylight Saving Time where and when it is observed.

FLIN FLON
MANITOBA

54°41'00.000" N
101°41'00.000" W
303.90 m
5050919
71954
WFO

Download Data

Hourly Data (October 2017)
Hourly Data Report for October 5, 2017
Temp Definition
°C
Dew Point Temp Definition
°C
Rel Hum Definition
%
Wind Dir Definition
10's deg

Wind Spd Definition
km/h
Visibility Definition
km
Stn Press Definition
kPa
Hmdx Definition


Wind Chill Definition


Weather Definition


TIME
00:00 1.9 -0.8 82 29 11   98.35     LegendNANA
01:00 1.9 -1.3 79 29 11   98.37     LegendNANA
02:00 1.5 -1.5 81 29 10   98.36     LegendNANA
03:00 1.1 -1.4 83 29 9   98.36     LegendNANA
04:00 1.2 -0.8 87 29 9   98.36     LegendNANA
05:00 1.4 -0.3 88 29 8   98.36     LegendNANA
06:00 1.6 0.1 90 28 10   98.32     LegendNANA
07:00 1.3 -0.3 89 28 9   98.30     LegendNANA
08:00 2.8 0.7 86 26 11   98.27     LegendNANA
09:00 5.0 1.5 78 27 11   98.24     LegendNANA
10:00 7.0 1.9 70 25 13   98.20     LegendNANA
11:00 8.8 1.3 60 26 20   98.15     LegendNANA
12:00 7.9 1.2 62 26 18   98.08     LegendNANA
13:00 8.4 1.9 63 24 8   98.01     LegendNANA
14:00 9.9 2.3 59 21 15   97.91     LegendNANA
15:00 10.2 2.3 58 22 18   97.82     LegendNANA
16:00 10.7 3.0 59 22 18   97.70     LegendNANA
17:00 11.3 3.5 59 22 17   97.60     LegendNANA
18:00 11.0 3.4 60 22 20   97.51     LegendNANA
19:00 11.0 3.6 60 22 15   97.45     LegendNANA
20:00 10.3 3.1 61 23 14   97.40     LegendNANA
21:00 9.3 2.8 64 22 14   97.34     LegendNANA
22:00 8.8 3.4 69 21 15   97.25     LegendNANA
23:00 9.2 3.3 67 22 16   97.17     LegendNANA

Notes on Data Quality.

Legend

  • E = Estimated
  • M = Missing
  • NA = Not Available
  • ‡ = Partner data that is not subject to review by the National Climate Archives
Date modified: